Location: Hylvaty SDH
(49.9612°N, 16.4057°E)
Time: 12:42:24
(UTC+01:00)

Tiros 1 - Pass Details

Date: 11 October 2020
Orbit: 630 x 663 km, 48.4° (Epoch: 28 October)

Event Time Altitude Azimuth Distance (km) Brightness Sun altitude
Rises 12:23:04 0° 250° (WSW) 2,923 10.7 32.6°
Reaches altitude 10° 12:25:23 10° 247° (WSW) 2,020 10.0 32.7°
Maximum altitude 12:29:59 63° 167° (SSE) 714 8.6 32.7°
Drops below altitude 10° 12:34:38 10° 87° (E) 2,045 9.8 32.7°
Sets 12:37:00 0° 84° (E) 2,962 10.5 32.7°
